Wetterdaten: Samstag, 30.01.2016
Datum Zeit Temp. A. Feuchte A. Luftdruck Regen Wind Richtung Richtung Sonnenschein ET UV Solar Taupunkt Windchill Windben Empfang
30.01.2016 00:00 0,1 C 98 % 1028,1 hPa 0,0 l/m 1,3 km/h (1 Bft) O-NO 73 0 min 0,000 mm 0,0 UV-I 0 W/m -0,2 C 0,1 C 3,2 km/h (1 Bft) 100,00 %
30.01.2016 00:05 0,2 C 98 % 1028,2 hPa 0,0 l/m 1,8 km/h (1 Bft) SO 144 0 min 0,000 mm 0,0 UV-I 0 W/m -0,1 C 0,2 C 4,8 km/h (1 Bft) 72,37 %
30.01.2016 00:10 0,2 C 98 % 1028,1 hPa 0,0 l/m 1,4 km/h (1 Bft) S-SO 150 0 min 0,000 mm 0,0 UV-I 0 W/m -0,1 C 0,2 C 4,8 km/h (1 Bft) 97,67 %
30.01.2016 00:15 0,5 C 98 % 1028,0 hPa 0,0 l/m 2,2 km/h (1 Bft) S-SO 153 0 min 0,000 mm 0,0 UV-I 0 W/m 0,2 C 0,5 C 4,8 km/h (1 Bft) 100,00 %
30.01.2016 00:20 0,4 C 98 % 1028,0 hPa 0,0 l/m 4,2 km/h (1 Bft) S-SO 166 0 min 0,000 mm 0,0 UV-I 0 W/m 0,1 C 0,4 C 6,4 km/h (2 Bft) 97,50 %
30.01.2016 00:25 0,3 C 98 % 1028,0 hPa 0,0 l/m 2,7 km/h (1 Bft) S-SO 166 0 min 0,000 mm 0,0 UV-I 0 W/m 0,0 C 0,3 C 4,8 km/h (1 Bft) 99,13 %
30.01.2016 00:30 -0,1 C 98 % 1028,0 hPa 0,0 l/m 3,3 km/h (1 Bft) S-SW 205 0 min 0,000 mm 0,0 UV-I 0 W/m -0,4 C -0,1 C 6,4 km/h (2 Bft) 99,11 %
30.01.2016 00:35 -0,2 C 98 % 1028,1 hPa 0,0 l/m 3,5 km/h (1 Bft) S-SW 205 0 min 0,000 mm 0,0 UV-I 0 W/m -0,5 C -0,2 C 4,8 km/h (1 Bft) 98,37 %
30.01.2016 00:40 0,1 C 98 % 1028,0 hPa 0,0 l/m 3,5 km/h (1 Bft) S-SW 204 0 min 0,000 mm 0,0 UV-I 0 W/m -0,2 C 0,1 C 4,8 km/h (1 Bft) 100,00 %
30.01.2016 00:45 0,3 C 98 % 1027,9 hPa 0,0 l/m 5,0 km/h (1 Bft) S 175 0 min 0,000 mm 0,0 UV-I 0 W/m 0,0 C 0,3 C 6,4 km/h (2 Bft) 99,10 %
30.01.2016 00:50 0,6 C 98 % 1027,9 hPa 0,0 l/m 5,4 km/h (1 Bft) S-SO 168 0 min 0,000 mm 0,0 UV-I 0 W/m 0,3 C 0,6 C 9,7 km/h (2 Bft) 100,00 %
30.01.2016 00:55 1,4 C 98 % 1027,9 hPa 0,0 l/m 4,5 km/h (1 Bft) W-SW 243 0 min 0,000 mm 0,0 UV-I 0 W/m 1,1 C 1,4 C 9,7 km/h (2 Bft) 99,15 %
30.01.2016 01:00 1,7 C 98 % 1027,9 hPa 0,0 l/m 3,7 km/h (1 Bft) N-NW 333 0 min 0,000 mm 0,0 UV-I 0 W/m 1,4 C 1,7 C 8,0 km/h (2 Bft) 99,10 %
30.01.2016 01:05 1,2 C 98 % 1027,7 hPa 0,0 l/m 3,3 km/h (1 Bft) S-SO 161 0 min 0,000 mm 0,0 UV-I 0 W/m 0,9 C 1,2 C 6,4 km/h (2 Bft) 100,00 %
30.01.2016 01:10 1,5 C 99 % 1027,8 hPa 0,0 l/m 4,0 km/h (1 Bft) S 169 0 min 0,000 mm 0,0 UV-I 0 W/m 1,4 C 1,5 C 8,0 km/h (2 Bft) 99,00 %
30.01.2016 01:15 1,7 C 98 % 1027,8 hPa 0,0 l/m 4,1 km/h (1 Bft) S 173 0 min 0,000 mm 0,0 UV-I 0 W/m 1,4 C 1,7 C 8,0 km/h (2 Bft) 99,24 %
30.01.2016 01:20 1,1 C 99 % 1027,8 hPa 0,0 l/m 1,1 km/h (1 Bft) S 173 0 min 0,000 mm 0,0 UV-I 0 W/m 1,0 C 1,1 C 3,2 km/h (1 Bft) 97,32 %
30.01.2016 01:25 0,2 C 98 % 1027,9 hPa 0,0 l/m 1,3 km/h (1 Bft) NW 317 0 min 0,000 mm 0,0 UV-I 0 W/m -0,1 C 0,2 C 3,2 km/h (1 Bft) 96,83 %
30.01.2016 01:30 -0,1 C 98 % 1027,9 hPa 0,0 l/m 0,9 km/h (0 Bft) NW 317 0 min 0,000 mm 0,0 UV-I 0 W/m -0,4 C -0,1 C 3,2 km/h (1 Bft) 97,32 %
30.01.2016 01:35 0,2 C 98 % 1027,9 hPa 0,0 l/m 0,8 km/h (0 Bft) NW 317 0 min 0,000 mm 0,0 UV-I 0 W/m -0,1 C 0,2 C 1,6 km/h (1 Bft) 97,46 %
30.01.2016 01:40 0,3 C 98 % 1027,8 hPa 0,0 l/m 0,2 km/h (0 Bft) NW 317 0 min 0,000 mm 0,0 UV-I 0 W/m 0,0 C 0,3 C 1,6 km/h (1 Bft) 95,50 %
30.01.2016 01:45 0,2 C 98 % 1027,8 hPa 0,0 l/m 0,4 km/h (0 Bft) S-SO 164 0 min 0,000 mm 0,0 UV-I 0 W/m -0,1 C 0,2 C 3,2 km/h (1 Bft) 96,69 %
30.01.2016 01:50 0,2 C 98 % 1027,7 hPa 0,0 l/m 0,0 km/h (0 Bft) S-SO 164 0 min 0,000 mm 0,0 UV-I 0 W/m -0,1 C 0,2 C 1,6 km/h (1 Bft) 97,39 %
30.01.2016 01:55 0,3 C 98 % 1027,7 hPa 0,0 l/m 0,4 km/h (0 Bft) S-SO 164 0 min 0,000 mm 0,0 UV-I 0 W/m 0,0 C 0,3 C 3,2 km/h (1 Bft) 95,61 %
30.01.2016 02:00 0,1 C 98 % 1027,7 hPa 0,0 l/m 1,2 km/h (1 Bft) S-SO 164 0 min 0,000 mm 0,0 UV-I 0 W/m -0,2 C 0,1 C 6,4 km/h (2 Bft) 97,58 %
30.01.2016 02:05 -0,1 C 98 % 1027,6 hPa 0,0 l/m 0,1 km/h (0 Bft) S-SO 164 0 min 0,000 mm 0,0 UV-I 0 W/m -0,4 C -0,1 C 1,6 km/h (1 Bft) 99,12 %
30.01.2016 02:10 -0,1 C 98 % 1027,6 hPa 0,0 l/m 1,0 km/h (0 Bft) S-SO 164 0 min 0,000 mm 0,0 UV-I 0 W/m -0,4 C -0,1 C 3,2 km/h (1 Bft) 98,39 %
30.01.2016 02:15 -0,2 C 98 % 1027,6 hPa 0,0 l/m 3,1 km/h (1 Bft) S-SW 200 0 min 0,000 mm 0,0 UV-I 0 W/m -0,5 C -0,2 C 6,4 km/h (2 Bft) 99,06 %
30.01.2016 02:20 -0,1 C 98 % 1027,5 hPa 0,0 l/m 3,2 km/h (1 Bft) SO 142 0 min 0,000 mm 0,0 UV-I 0 W/m -0,4 C -0,1 C 9,7 km/h (2 Bft) 99,03 %
30.01.2016 02:25 0,1 C 98 % 1027,5 hPa 0,0 l/m 4,7 km/h (1 Bft) NW 312 0 min 0,000 mm 0,0 UV-I 0 W/m -0,2 C 0,1 C 11,3 km/h (2 Bft) 99,28 %
30.01.2016 02:30 0,0 C 98 % 1027,5 hPa 0,0 l/m 2,7 km/h (1 Bft) W-SW 246 0 min 0,000 mm 0,0 UV-I 0 W/m -0,3 C 0,0 C 4,8 km/h (1 Bft) 98,26 %
30.01.2016 02:35 0,2 C 98 % 1027,5 hPa 0,0 l/m 3,3 km/h (1 Bft) S-SW 196 0 min 0,000 mm 0,0 UV-I 0 W/m -0,1 C 0,2 C 4,8 km/h (1 Bft) 100,00 %
30.01.2016 02:40 0,2 C 98 % 1027,4 hPa 0,0 l/m 2,4 km/h (1 Bft) S-SO 162 0 min 0,000 mm 0,0 UV-I 0 W/m -0,1 C 0,2 C 6,4 km/h (2 Bft) 100,00 %
30.01.2016 02:45 0,7 C 98 % 1027,3 hPa 0,0 l/m 3,7 km/h (1 Bft) S 169 0 min 0,000 mm 0,0 UV-I 0 W/m 0,4 C 0,7 C 8,0 km/h (2 Bft) 98,15 %
30.01.2016 02:50 0,9 C 99 % 1027,3 hPa 0,0 l/m 3,5 km/h (1 Bft) S-SW 196 0 min 0,000 mm 0,0 UV-I 0 W/m 0,8 C 0,9 C 8,0 km/h (2 Bft) 100,00 %
30.01.2016 02:55 0,7 C 98 % 1027,4 hPa 0,0 l/m 4,3 km/h (1 Bft) SW 225 0 min 0,000 mm 0,0 UV-I 0 W/m 0,4 C 0,7 C 6,4 km/h (2 Bft) 98,39 %
30.01.2016 03:00 0,6 C 98 % 1027,2 hPa 0,0 l/m 5,8 km/h (2 Bft) S-SO 165 0 min 0,000 mm 0,0 UV-I 0 W/m 0,3 C 0,6 C 9,7 km/h (2 Bft) 99,10 %
30.01.2016 03:05 1,5 C 99 % 1027,1 hPa 0,0 l/m 7,3 km/h (2 Bft) S 169 0 min 0,000 mm 0,0 UV-I 0 W/m 1,4 C 0,6 C 11,3 km/h (2 Bft) 98,26 %
30.01.2016 03:10 1,9 C 99 % 1027,1 hPa 0,0 l/m 6,0 km/h (2 Bft) S 190 0 min 0,000 mm 0,0 UV-I 0 W/m 1,8 C 1,9 C 11,3 km/h (2 Bft) 99,19 %
30.01.2016 03:15 2,1 C 99 % 1027,1 hPa 0,0 l/m 6,2 km/h (2 Bft) S-SW 194 0 min 0,000 mm 0,0 UV-I 0 W/m 2,0 C 2,1 C 9,7 km/h (2 Bft) 99,10 %
30.01.2016 03:20 1,9 C 99 % 1026,9 hPa 0,0 l/m 6,7 km/h (2 Bft) S 178 0 min 0,000 mm 0,0 UV-I 0 W/m 1,8 C 1,6 C 9,7 km/h (2 Bft) 100,00 %
30.01.2016 03:25 1,8 C 99 % 1027,0 hPa 0,0 l/m 4,6 km/h (1 Bft) S-SW 206 0 min 0,000 mm 0,0 UV-I 0 W/m 1,7 C 1,8 C 8,0 km/h (2 Bft) 98,29 %
30.01.2016 03:30 1,5 C 99 % 1027,0 hPa 0,0 l/m 2,2 km/h (1 Bft) W-SW 238 0 min 0,000 mm 0,0 UV-I 0 W/m 1,4 C 1,5 C 4,8 km/h (1 Bft) 98,31 %
30.01.2016 03:35 1,2 C 99 % 1027,0 hPa 0,0 l/m 3,1 km/h (1 Bft) W-SW 257 0 min 0,000 mm 0,0 UV-I 0 W/m 1,1 C 1,2 C 4,8 km/h (1 Bft) 99,15 %
30.01.2016 03:40 1,2 C 98 % 1027,0 hPa 0,0 l/m 2,5 km/h (1 Bft) W-SW 250 0 min 0,000 mm 0,0 UV-I 0 W/m 0,9 C 1,2 C 4,8 km/h (1 Bft) 97,37 %
30.01.2016 03:45 0,9 C 98 % 1027,0 hPa 0,0 l/m 2,9 km/h (1 Bft) SW 232 0 min 0,000 mm 0,0 UV-I 0 W/m 0,6 C 0,9 C 4,8 km/h (1 Bft) 97,25 %
30.01.2016 03:50 0,8 C 98 % 1026,8 hPa 0,0 l/m 2,8 km/h (1 Bft) S-SW 211 0 min 0,000 mm 0,0 UV-I 0 W/m 0,5 C 0,8 C 4,8 km/h (1 Bft) 97,62 %
30.01.2016 03:55 0,8 C 98 % 1026,8 hPa 0,0 l/m 2,8 km/h (1 Bft) S 185 0 min 0,000 mm 0,0 UV-I 0 W/m 0,5 C 0,8 C 4,8 km/h (1 Bft) 97,46 %
30.01.2016 04:00 0,7 C 98 % 1026,8 hPa 0,0 l/m 1,6 km/h (1 Bft) S 186 0 min 0,000 mm 0,0 UV-I 0 W/m 0,4 C 0,7 C 3,2 km/h (1 Bft) 98,31 %
30.01.2016 04:05 0,4 C 98 % 1026,7 hPa 0,0 l/m 3,5 km/h (1 Bft) S-SW 195 0 min 0,000 mm 0,0 UV-I 0 W/m 0,1 C 0,4 C 6,4 km/h (2 Bft) 95,88 %
30.01.2016 04:10 0,7 C 98 % 1026,7 hPa 0,0 l/m 4,8 km/h (1 Bft) S-SO 167 0 min 0,000 mm 0,0 UV-I 0 W/m 0,4 C 0,7 C 8,0 km/h (2 Bft) 97,52 %
30.01.2016 04:15 0,9 C 98 % 1026,6 hPa 0,0 l/m 2,7 km/h (1 Bft) S-SO 168 0 min 0,000 mm 0,0 UV-I 0 W/m 0,6 C 0,9 C 6,4 km/h (2 Bft) 97,32 %
30.01.2016 04:20 1,3 C 98 % 1026,5 hPa 0,0 l/m 4,1 km/h (1 Bft) S-SO 167 0 min 0,000 mm 0,0 UV-I 0 W/m 1,0 C 1,3 C 8,0 km/h (2 Bft) 97,56 %
30.01.2016 04:25 1,7 C 98 % 1026,5 hPa 0,0 l/m 2,3 km/h (1 Bft) S 178 0 min 0,000 mm 0,0 UV-I 0 W/m 1,4 C 1,7 C 6,4 km/h (2 Bft) 100,00 %
30.01.2016 04:30 1,8 C 99 % 1026,5 hPa 0,0 l/m 3,2 km/h (1 Bft) S 175 0 min 0,000 mm 0,0 UV-I 0 W/m 1,7 C 1,8 C 8,0 km/h (2 Bft) 99,21 %
30.01.2016 04:35 1,0 C 98 % 1026,4 hPa 0,0 l/m 0,6 km/h (0 Bft) S 175 0 min 0,000 mm 0,0 UV-I 0 W/m 0,7 C 1,0 C 3,2 km/h (1 Bft) 100,00 %
30.01.2016 04:40 0,2 C 98 % 1026,3 hPa 0,0 l/m 0,0 km/h (0 Bft) S 175 0 min 0,000 mm 0,0 UV-I 0 W/m -0,1 C 0,2 C 0,0 km/h (0 Bft) 98,35 %
30.01.2016 04:45 0,1 C 98 % 1026,2 hPa 0,0 l/m 0,2 km/h (0 Bft) S 175 0 min 0,000 mm 0,0 UV-I 0 W/m -0,2 C 0,1 C 1,6 km/h (1 Bft) 98,25 %
30.01.2016 04:50 0,3 C 98 % 1026,2 hPa 0,0 l/m 1,4 km/h (1 Bft) S 175 0 min 0,000 mm 0,0 UV-I 0 W/m 0,0 C 0,3 C 3,2 km/h (1 Bft) 99,11 %
30.01.2016 04:55 0,8 C 98 % 1026,2 hPa 0,0 l/m 0,0 km/h (0 Bft) S 175 0 min 0,000 mm 0,0 UV-I 0 W/m 0,5 C 0,8 C 0,0 km/h (0 Bft) 98,39 %
30.01.2016 05:00 0,8 C 98 % 1026,1 hPa 0,0 l/m 0,0 km/h (0 Bft) S 175 0 min 0,000 mm 0,0 UV-I 0 W/m 0,5 C 0,8 C 0,0 km/h (0 Bft) 98,29 %
30.01.2016 05:05 0,7 C 98 % 1026,1 hPa 0,0 l/m 0,3 km/h (0 Bft) S 175 0 min 0,000 mm 0,0 UV-I 0 W/m 0,4 C 0,7 C 3,2 km/h (1 Bft) 100,00 %
30.01.2016 05:10 0,6 C 98 % 1025,9 hPa 0,0 l/m 0,6 km/h (0 Bft) S 175 0 min 0,000 mm 0,0 UV-I 0 W/m 0,3 C 0,6 C 3,2 km/h (1 Bft) 100,00 %
30.01.2016 05:15 0,5 C 98 % 1026,0 hPa 0,0 l/m 0,2 km/h (0 Bft) S 175 0 min 0,000 mm 0,0 UV-I 0 W/m 0,2 C 0,5 C 3,2 km/h (1 Bft) 100,00 %
30.01.2016 05:20 0,3 C 98 % 1026,0 hPa 0,0 l/m 0,0 km/h (0 Bft) S 175 0 min 0,000 mm 0,0 UV-I 0 W/m 0,0 C 0,3 C 0,0 km/h (0 Bft) 100,00 %
30.01.2016 05:25 0,1 C 98 % 1025,9 hPa 0,0 l/m 0,2 km/h (0 Bft) S 175 0 min 0,000 mm 0,0 UV-I 0 W/m -0,2 C 0,1 C 1,6 km/h (1 Bft) 100,00 %
30.01.2016 05:30 0,0 C 98 % 1025,8 hPa 0,0 l/m 1,2 km/h (1 Bft) S 175 0 min 0,000 mm 0,0 UV-I 0 W/m -0,3 C 0,0 C 3,2 km/h (1 Bft) 99,17 %
30.01.2016 05:35 0,0 C 98 % 1025,8 hPa 0,0 l/m 1,2 km/h (1 Bft) S 175 0 min 0,000 mm 0,0 UV-I 0 W/m -0,3 C 0,0 C 3,2 km/h (1 Bft) 100,00 %
30.01.2016 05:40 0,4 C 98 % 1025,8 hPa 0,0 l/m 3,5 km/h (1 Bft) S 175 0 min 0,000 mm 0,0 UV-I 0 W/m 0,1 C 0,4 C 4,8 km/h (1 Bft) 99,19 %
30.01.2016 05:45 0,6 C 98 % 1025,7 hPa 0,0 l/m 3,0 km/h (1 Bft) S 175 0 min 0,000 mm 0,0 UV-I 0 W/m 0,3 C 0,6 C 4,8 km/h (1 Bft) 99,08 %
30.01.2016 05:50 0,6 C 98 % 1025,8 hPa 0,0 l/m 1,8 km/h (1 Bft) S 174 0 min 0,000 mm 0,0 UV-I 0 W/m 0,3 C 0,6 C 3,2 km/h (1 Bft) 97,56 %
30.01.2016 05:55 0,5 C 98 % 1025,7 hPa 0,0 l/m 2,5 km/h (1 Bft) W-NW 288 0 min 0,000 mm 0,0 UV-I 0 W/m 0,2 C 0,5 C 4,8 km/h (1 Bft) 98,21 %
30.01.2016 06:00 0,2 C 98 % 1025,7 hPa 0,0 l/m 3,9 km/h (1 Bft) S-SW 207 0 min 0,000 mm 0,0 UV-I 0 W/m -0,1 C 0,2 C 4,8 km/h (1 Bft) 96,69 %
30.01.2016 06:05 0,2 C 98 % 1025,7 hPa 0,0 l/m 4,5 km/h (1 Bft) S 184 0 min 0,000 mm 0,0 UV-I 0 W/m -0,1 C 0,2 C 8,0 km/h (2 Bft) 95,54 %
30.01.2016 06:10 0,2 C 98 % 1025,6 hPa 0,0 l/m 4,5 km/h (1 Bft) S-SW 209 0 min 0,000 mm 0,0 UV-I 0 W/m -0,1 C 0,2 C 6,4 km/h (2 Bft) 96,75 %
30.01.2016 06:15 0,6 C 98 % 1025,5 hPa 0,0 l/m 4,1 km/h (1 Bft) S-SW 201 0 min 0,000 mm 0,0 UV-I 0 W/m 0,3 C 0,6 C 8,0 km/h (2 Bft) 97,32 %
30.01.2016 06:20 0,7 C 98 % 1025,5 hPa 0,0 l/m 4,0 km/h (1 Bft) S-SW 213 0 min 0,000 mm 0,0 UV-I 0 W/m 0,4 C 0,7 C 6,4 km/h (2 Bft) 98,37 %
30.01.2016 06:25 0,8 C 98 % 1025,4 hPa 0,0 l/m 3,6 km/h (1 Bft) SW 220 0 min 0,000 mm 0,0 UV-I 0 W/m 0,5 C 0,8 C 8,0 km/h (2 Bft) 96,43 %
30.01.2016 06:30 0,9 C 99 % 1025,4 hPa 0,0 l/m 2,9 km/h (1 Bft) S-SW 192 0 min 0,000 mm 0,0 UV-I 0 W/m 0,8 C 0,9 C 6,4 km/h (2 Bft) 98,26 %
30.01.2016 06:35 1,1 C 98 % 1025,4 hPa 0,0 l/m 2,1 km/h (1 Bft) S 191 0 min 0,000 mm 0,0 UV-I 0 W/m 0,8 C 1,1 C 4,8 km/h (1 Bft) 99,19 %
30.01.2016 06:40 1,2 C 99 % 1025,4 hPa 0,0 l/m 1,1 km/h (1 Bft) S 190 0 min 0,000 mm 0,0 UV-I 0 W/m 1,1 C 1,2 C 3,2 km/h (1 Bft) 98,26 %
30.01.2016 06:45 1,4 C 98 % 1025,4 hPa 0,0 l/m 0,8 km/h (0 Bft) S 190 0 min 0,000 mm 0,0 UV-I 0 W/m 1,1 C 1,4 C 3,2 km/h (1 Bft) 100,00 %
30.01.2016 06:50 1,4 C 98 % 1025,3 hPa 0,0 l/m 2,7 km/h (1 Bft) S 189 0 min 0,000 mm 0,0 UV-I 0 W/m 1,1 C 1,4 C 4,8 km/h (1 Bft) 100,00 %
30.01.2016 06:55 1,4 C 98 % 1025,3 hPa 0,0 l/m 3,1 km/h (1 Bft) S 189 0 min 0,000 mm 0,0 UV-I 0 W/m 1,1 C 1,4 C 4,8 km/h (1 Bft) 97,64 %
30.01.2016 07:00 1,3 C 98 % 1025,2 hPa 0,0 l/m 3,6 km/h (1 Bft) S 188 0 min 0,000 mm 0,0 UV-I 0 W/m 1,0 C 1,3 C 4,8 km/h (1 Bft) 100,00 %
30.01.2016 07:05 1,1 C 98 % 1025,1 hPa 0,0 l/m 3,1 km/h (1 Bft) S 186 0 min 0,000 mm 0,0 UV-I 0 W/m 0,8 C 1,1 C 4,8 km/h (1 Bft) 100,00 %
30.01.2016 07:10 0,9 C 98 % 1025,1 hPa 0,0 l/m 3,5 km/h (1 Bft) S 172 0 min 0,000 mm 0,0 UV-I 0 W/m 0,6 C 0,9 C 4,8 km/h (1 Bft) 100,00 %
30.01.2016 07:15 1,1 C 98 % 1025,0 hPa 0,0 l/m 3,7 km/h (1 Bft) S-SO 163 0 min 0,000 mm 0,0 UV-I 0 W/m 0,8 C 1,1 C 8,0 km/h (2 Bft) 99,17 %
30.01.2016 07:20 1,3 C 98 % 1025,0 hPa 0,0 l/m 3,8 km/h (1 Bft) S 180 0 min 0,000 mm 0,0 UV-I 0 W/m 1,0 C 1,3 C 6,4 km/h (2 Bft) 99,13 %
30.01.2016 07:25 1,3 C 98 % 1024,9 hPa 0,0 l/m 2,0 km/h (1 Bft) S 179 0 min 0,000 mm 0,0 UV-I 0 W/m 1,0 C 1,3 C 4,8 km/h (1 Bft) 100,00 %
30.01.2016 07:30 1,4 C 98 % 1025,0 hPa 0,0 l/m 2,0 km/h (1 Bft) S-SO 162 0 min 0,000 mm 0,0 UV-I 0 W/m 1,1 C 1,4 C 6,4 km/h (2 Bft) 100,00 %
30.01.2016 07:35 1,6 C 99 % 1025,1 hPa 0,0 l/m 2,3 km/h (1 Bft) S 176 0 min 0,000 mm 0,0 UV-I 4 W/m 1,5 C 1,6 C 6,4 km/h (2 Bft) 99,15 %
30.01.2016 07:40 1,6 C 99 % 1025,0 hPa 0,0 l/m 4,7 km/h (1 Bft) S-SO 159 0 min 0,000 mm 0,0 UV-I 6 W/m 1,5 C 1,6 C 9,7 km/h (2 Bft) 99,15 %
30.01.2016 07:45 1,5 C 98 % 1025,0 hPa 0,0 l/m 3,1 km/h (1 Bft) S 172 0 min 0,000 mm 0,0 UV-I 9 W/m 1,2 C 1,5 C 6,4 km/h (2 Bft) 100,00 %
30.01.2016 07:50 1,3 C 98 % 1025,0 hPa 0,0 l/m 2,0 km/h (1 Bft) S 172 0 min 0,000 mm 0,0 UV-I 11 W/m 1,0 C 1,3 C 3,2 km/h (1 Bft) 100,00 %
30.01.2016 07:55 1,2 C 98 % 1024,9 hPa 0,0 l/m 0,8 km/h (0 Bft) S 172 0 min 0,000 mm 0,0 UV-I 13 W/m 0,9 C 1,2 C 3,2 km/h (1 Bft) 99,17 %
30.01.2016 08:00 1,3 C 98 % 1025,0 hPa 0,0 l/m 0,8 km/h (0 Bft) S 172 0 min 0,000 mm 0,0 UV-I 16 W/m 1,0 C 1,3 C 3,2 km/h (1 Bft) 100,00 %
30.01.2016 08:05 0,8 C 98 % 1024,9 hPa 0,0 l/m 2,3 km/h (1 Bft) N 11 0 min 0,000 mm 0,0 UV-I 18 W/m 0,5 C 0,8 C 4,8 km/h (1 Bft) 97,62 %
30.01.2016 08:10 0,7 C 98 % 1024,9 hPa 0,0 l/m 2,1 km/h (1 Bft) N 11 0 min 0,000 mm 0,0 UV-I 24 W/m 0,4 C 0,7 C 3,2 km/h (1 Bft) 97,25 %
30.01.2016 08:15 0,4 C 98 % 1025,0 hPa 0,0 l/m 0,6 km/h (0 Bft) N 355 0 min 0,000 mm 0,0 UV-I 42 W/m 0,1 C 0,4 C 3,2 km/h (1 Bft) 97,32 %
30.01.2016 08:20 0,4 C 98 % 1025,0 hPa 0,0 l/m 1,7 km/h (1 Bft) N 355 5 min 0,000 mm 0,0 UV-I 56 W/m 0,1 C 0,4 C 3,2 km/h (1 Bft) 97,50 %
30.01.2016 08:25 0,6 C 98 % 1024,9 hPa 0,0 l/m 1,5 km/h (1 Bft) N 355 5 min 0,000 mm 0,0 UV-I 67 W/m 0,3 C 0,6 C 3,2 km/h (1 Bft) 97,58 %
30.01.2016 08:30 0,5 C 98 % 1024,9 hPa 0,0 l/m 1,8 km/h (1 Bft) N 355 5 min 0,000 mm 0,0 UV-I 77 W/m 0,2 C 0,5 C 3,2 km/h (1 Bft) 95,83 %
30.01.2016 08:35 -0,1 C 98 % 1024,8 hPa 0,0 l/m 4,1 km/h (1 Bft) NO 50 5 min 0,000 mm 0,0 UV-I 85 W/m -0,4 C -0,1 C 8,0 km/h (2 Bft) 96,33 %
30.01.2016 08:40 -0,4 C 98 % 1024,8 hPa 0,0 l/m 5,3 km/h (1 Bft) NO 42 5 min 0,000 mm 0,0 UV-I 93 W/m -0,7 C -0,4 C 8,0 km/h (2 Bft) 98,31 %
30.01.2016 08:45 -0,8 C 98 % 1024,8 hPa 0,0 l/m 5,0 km/h (1 Bft) NO 47 5 min 0,000 mm 0,0 UV-I 99 W/m -1,1 C -0,8 C 6,4 km/h (2 Bft) 99,12 %
30.01.2016 08:50 -0,9 C 98 % 1024,8 hPa 0,2 l/m 4,8 km/h (1 Bft) NO 42 5 min 0,000 mm 0,0 UV-I 98 W/m -1,2 C -0,9 C 8,0 km/h (2 Bft) 99,21 %
30.01.2016 08:55 -0,9 C 98 % 1024,8 hPa 0,0 l/m 3,1 km/h (1 Bft) NO 56 5 min 0,000 mm 0,0 UV-I 117 W/m -1,2 C -0,9 C 4,8 km/h (1 Bft) 99,11 %
30.01.2016 09:00 -0,8 C 98 % 1024,7 hPa 0,0 l/m 3,6 km/h (1 Bft) O-NO 59 5 min 0,025 mm 0,0 UV-I 126 W/m -1,1 C -0,8 C 4,8 km/h (1 Bft) 98,29 %
30.01.2016 09:05 -0,6 C 98 % 1024,8 hPa 0,0 l/m 0,1 km/h (0 Bft) O-NO 59 5 min 0,000 mm 0,0 UV-I 149 W/m -0,9 C -0,6 C 1,6 km/h (1 Bft) 100,00 %
30.01.2016 09:10 -0,5 C 98 % 1024,7 hPa 0,0 l/m 0,9 km/h (0 Bft) O-NO 59 5 min 0,000 mm 0,0 UV-I 158 W/m -0,8 C -0,5 C 3,2 km/h (1 Bft) 98,17 %
30.01.2016 09:15 -0,1 C 98 % 1024,7 hPa 0,0 l/m 0,7 km/h (0 Bft) O-NO 59 5 min 0,000 mm 0,0 UV-I 175 W/m -0,4 C -0,1 C 1,6 km/h (1 Bft) 100,00 %
30.01.2016 09:20 0,2 C 98 % 1024,7 hPa 0,0 l/m 1,3 km/h (1 Bft) O-NO 59 5 min 0,000 mm 0,0 UV-I 188 W/m -0,1 C 0,2 C 3,2 km/h (1 Bft) 100,00 %
30.01.2016 09:25 0,6 C 98 % 1024,4 hPa 0,0 l/m 2,6 km/h (1 Bft) O-NO 59 5 min 0,000 mm 0,0 UV-I 199 W/m 0,3 C 0,6 C 4,8 km/h (1 Bft) 100,00 %
30.01.2016 09:30 1,0 C 99 % 1024,3 hPa 0,0 l/m 2,3 km/h (1 Bft) O-NO 63 5 min 0,000 mm 0,0 UV-I 212 W/m 0,9 C 1,0 C 4,8 km/h (1 Bft) 100,00 %
30.01.2016 09:35 0,4 C 98 % 1024,3 hPa 0,0 l/m 0,1 km/h (0 Bft) O-NO 63 5 min 0,000 mm 0,0 UV-I 221 W/m 0,1 C 0,4 C 1,6 km/h (1 Bft) 100,00 %
30.01.2016 09:40 1,0 C 99 % 1024,3 hPa 0,0 l/m 0,7 km/h (0 Bft) O-NO 63 5 min 0,000 mm 0,0 UV-I 231 W/m 0,9 C 1,0 C 3,2 km/h (1 Bft) 98,29 %
30.01.2016 09:45 1,1 C 98 % 1024,3 hPa 0,0 l/m 1,0 km/h (0 Bft) NO 42 5 min 0,000 mm 0,4 UV-I 242 W/m 0,8 C 1,1 C 4,8 km/h (1 Bft) 97,25 %
30.01.2016 09:50 1,0 C 98 % 1024,2 hPa 0,0 l/m 0,1 km/h (0 Bft) NO 42 5 min 0,000 mm 0,5 UV-I 250 W/m 0,7 C 1,0 C 1,6 km/h (1 Bft) 97,52 %
30.01.2016 09:55 1,4 C 98 % 1024,3 hPa 0,0 l/m 0,0 km/h (0 Bft) NO 42 5 min 0,000 mm 0,5 UV-I 260 W/m 1,1 C 1,4 C 1,6 km/h (1 Bft) 97,37 %
30.01.2016 10:00 1,6 C 98 % 1024,2 hPa 0,0 l/m 0,3 km/h (0 Bft) O-NO 65 5 min 0,077 mm 0,6 UV-I 268 W/m 1,3 C 1,6 C 3,2 km/h (1 Bft) 97,58 %
30.01.2016 10:05 1,6 C 98 % 1024,1 hPa 0,0 l/m 2,0 km/h (1 Bft) N-NO 30 5 min 0,000 mm 0,6 UV-I 275 W/m 1,3 C 1,6 C 4,8 km/h (1 Bft) 100,00 %
30.01.2016 10:10 1,6 C 97 % 1024,1 hPa 0,0 l/m 3,8 km/h (1 Bft) N-NO 17 5 min 0,000 mm 0,6 UV-I 276 W/m 1,2 C 1,6 C 6,4 km/h (2 Bft) 97,52 %
30.01.2016 10:15 1,0 C 97 % 1024,1 hPa 0,0 l/m 6,0 km/h (2 Bft) NO 34 5 min 0,000 mm 0,6 UV-I 246 W/m 0,6 C 1,0 C 8,0 km/h (2 Bft) 99,08 %
30.01.2016 10:20 0,3 C 97 % 1024,0 hPa 0,0 l/m 8,3 km/h (2 Bft) NO 43 5 min 0,000 mm 0,6 UV-I 275 W/m -0,1 C -1,6 C 11,3 km/h (2 Bft) 100,00 %
30.01.2016 10:25 0,0 C 97 % 1024,1 hPa 0,0 l/m 7,2 km/h (2 Bft) NO 42 5 min 0,000 mm 0,6 UV-I 237 W/m -0,4 C -0,8 C 11,3 km/h (2 Bft) 100,00 %
30.01.2016 10:30 0,0 C 98 % 1024,1 hPa 0,0 l/m 6,4 km/h (2 Bft) N-NO 32 5 min 0,000 mm 0,6 UV-I 210 W/m -0,3 C 0,0 C 11,3 km/h (2 Bft) 98,31 %
30.01.2016 10:35 0,0 C 98 % 1024,1 hPa 0,0 l/m 5,4 km/h (1 Bft) NO 37 5 min 0,000 mm 0,7 UV-I 218 W/m -0,3 C 0,0 C 6,4 km/h (2 Bft) 99,17 %
30.01.2016 10:40 0,0 C 98 % 1024,1 hPa 0,0 l/m 4,8 km/h (1 Bft) N-NO 22 5 min 0,000 mm 0,7 UV-I 252 W/m -0,3 C 0,0 C 6,4 km/h (2 Bft) 99,15 %
30.01.2016 10:45 0,1 C 98 % 1024,1 hPa 0,0 l/m 3,4 km/h (1 Bft) N-NO 24 5 min 0,000 mm 0,7 UV-I 262 W/m -0,2 C 0,1 C 6,4 km/h (2 Bft) 97,56 %
30.01.2016 10:50 0,3 C 98 % 1024,0 hPa 0,0 l/m 1,3 km/h (1 Bft) N-NO 23 5 min 0,000 mm 0,8 UV-I 269 W/m 0,0 C 0,3 C 3,2 km/h (1 Bft) 99,17 %
30.01.2016 10:55 0,4 C 98 % 1023,9 hPa 0,0 l/m 1,6 km/h (1 Bft) N-NO 24 5 min 0,000 mm 0,8 UV-I 246 W/m 0,1 C 0,4 C 6,4 km/h (2 Bft) 99,06 %
30.01.2016 11:00 0,7 C 98 % 1023,8 hPa 0,0 l/m 2,5 km/h (1 Bft) NO 53 5 min 0,076 mm 0,9 UV-I 308 W/m 0,4 C 0,7 C 6,4 km/h (2 Bft) 98,37 %
30.01.2016 11:05 0,7 C 98 % 1023,7 hPa 0,0 l/m 3,5 km/h (1 Bft) NO 42 5 min 0,000 mm 0,9 UV-I 299 W/m 0,4 C 0,7 C 6,4 km/h (2 Bft) 96,61 %
30.01.2016 11:10 0,7 C 98 % 1023,6 hPa 0,0 l/m 4,2 km/h (1 Bft) NO 40 5 min 0,000 mm 1,0 UV-I 323 W/m 0,4 C 0,7 C 6,4 km/h (2 Bft) 97,32 %
30.01.2016 11:15 0,9 C 98 % 1023,5 hPa 0,0 l/m 3,3 km/h (1 Bft) N-NO 26 5 min 0,000 mm 1,0 UV-I 329 W/m 0,6 C 0,9 C 6,4 km/h (2 Bft) 97,56 %
30.01.2016 11:20 1,1 C 98 % 1023,3 hPa 0,0 l/m 4,6 km/h (1 Bft) N-NO 26 5 min 0,000 mm 1,0 UV-I 361 W/m 0,8 C 1,1 C 8,0 km/h (2 Bft) 97,46 %
30.01.2016 11:25 1,3 C 99 % 1023,2 hPa 0,0 l/m 2,2 km/h (1 Bft) N-NO 27 5 min 0,000 mm 1,0 UV-I 360 W/m 1,2 C 1,3 C 6,4 km/h (2 Bft) 96,43 %
30.01.2016 11:30 1,3 C 99 % 1023,2 hPa 0,0 l/m 5,3 km/h (1 Bft) N-NO 29 5 min 0,000 mm 1,0 UV-I 335 W/m 1,2 C 1,3 C 8,0 km/h (2 Bft) 97,56 %
30.01.2016 11:35 1,3 C 99 % 1023,0 hPa 0,0 l/m 4,8 km/h (1 Bft) N-NO 24 5 min 0,000 mm 0,9 UV-I 242 W/m 1,2 C 1,3 C 8,0 km/h (2 Bft) 98,21 %
30.01.2016 11:40 1,4 C 98 % 1022,9 hPa 0,0 l/m 2,1 km/h (1 Bft) N-NO 16 5 min 0,000 mm 0,9 UV-I 225 W/m 1,1 C 1,4 C 6,4 km/h (2 Bft) 99,15 %
30.01.2016 11:45 1,4 C 98 % 1022,8 hPa 0,0 l/m 2,3 km/h (1 Bft) N-NO 21 0 min 0,000 mm 0,8 UV-I 215 W/m 1,1 C 1,4 C 6,4 km/h (2 Bft) 99,15 %
30.01.2016 11:50 1,6 C 99 % 1022,6 hPa 0,0 l/m 3,4 km/h (1 Bft) N-NO 26 0 min 0,000 mm 0,8 UV-I 218 W/m 1,5 C 1,6 C 8,0 km/h (2 Bft) 99,11 %
30.01.2016 11:55 1,8 C 99 % 1022,4 hPa 0,0 l/m 4,6 km/h (1 Bft) N 11 5 min 0,000 mm 0,8 UV-I 245 W/m 1,7 C 1,8 C 8,0 km/h (2 Bft) 100,00 %
30.01.2016 12:00 1,9 C 99 % 1022,3 hPa 0,0 l/m 3,9 km/h (1 Bft) N-NO 16 5 min 0,101 mm 0,8 UV-I 243 W/m 1,8 C 1,9 C 8,0 km/h (2 Bft) 99,17 %
30.01.2016 12:05 2,2 C 99 % 1022,2 hPa 0,0 l/m 3,4 km/h (1 Bft) N 9 5 min 0,000 mm 0,8 UV-I 246 W/m 2,1 C 2,2 C 8,0 km/h (2 Bft) 99,21 %
30.01.2016 12:10 2,2 C 99 % 1022,0 hPa 0,0 l/m 4,6 km/h (1 Bft) NO 36 5 min 0,000 mm 0,8 UV-I 231 W/m 2,1 C 2,2 C 8,0 km/h (2 Bft) 98,26 %
30.01.2016 12:15 2,5 C 99 % 1022,0 hPa 0,0 l/m 3,9 km/h (1 Bft) N-NO 18 5 min 0,000 mm 0,8 UV-I 255 W/m 2,4 C 2,5 C 8,0 km/h (2 Bft) 100,00 %
30.01.2016 12:20 2,6 C 99 % 1021,8 hPa 0,0 l/m 4,2 km/h (1 Bft) N-NO 13 5 min 0,000 mm 0,9 UV-I 252 W/m 2,5 C 2,6 C 11,3 km/h (2 Bft) 99,11 %
30.01.2016 12:25 2,7 C 99 % 1021,8 hPa 0,0 l/m 5,0 km/h (1 Bft) N-NO 13 5 min 0,000 mm 0,9 UV-I 252 W/m 2,6 C 2,7 C 11,3 km/h (2 Bft) 98,29 %
30.01.2016 12:30 2,7 C 99 % 1021,6 hPa 0,0 l/m 3,5 km/h (1 Bft) N-NO 26 5 min 0,000 mm 0,8 UV-I 253 W/m 2,6 C 2,7 C 11,3 km/h (2 Bft) 97,46 %
30.01.2016 12:35 2,7 C 99 % 1021,4 hPa 0,0 l/m 4,3 km/h (1 Bft) N-NO 17 5 min 0,000 mm 0,8 UV-I 237 W/m 2,6 C 2,7 C 9,7 km/h (2 Bft) 99,22 %
30.01.2016 12:40 2,8 C 99 % 1021,3 hPa 0,0 l/m 5,2 km/h (1 Bft) N 360 0 min 0,000 mm 0,8 UV-I 227 W/m 2,7 C 2,8 C 11,3 km/h (2 Bft) 99,15 %
30.01.2016 12:45 2,7 C 99 % 1021,1 hPa 0,0 l/m 5,0 km/h (1 Bft) N-NO 30 0 min 0,000 mm 0,8 UV-I 224 W/m 2,6 C 2,7 C 12,9 km/h (3 Bft) 97,25 %
30.01.2016 12:50 2,8 C 99 % 1020,9 hPa 0,0 l/m 5,4 km/h (1 Bft) N-NW 342 0 min 0,000 mm 0,8 UV-I 225 W/m 2,7 C 2,8 C 12,9 km/h (3 Bft) 97,44 %
30.01.2016 12:55 2,9 C 99 % 1020,8 hPa 0,0 l/m 4,5 km/h (1 Bft) N 360 0 min 0,000 mm 0,7 UV-I 219 W/m 2,8 C 2,9 C 12,9 km/h (3 Bft) 96,77 %
30.01.2016 13:00 2,8 C 99 % 1020,6 hPa 0,0 l/m 4,2 km/h (1 Bft) N 5 0 min 0,077 mm 0,7 UV-I 207 W/m 2,7 C 2,8 C 11,3 km/h (2 Bft) 94,68 %
30.01.2016 13:05 2,8 C 99 % 1020,4 hPa 0,0 l/m 4,6 km/h (1 Bft) N 10 0 min 0,000 mm 0,7 UV-I 204 W/m 2,7 C 2,8 C 12,9 km/h (3 Bft) 97,04 %
30.01.2016 13:10 2,8 C 99 % 1020,3 hPa 0,0 l/m 5,9 km/h (2 Bft) N-NO 33 0 min 0,000 mm 0,7 UV-I 197 W/m 2,7 C 2,8 C 12,9 km/h (3 Bft) 97,52 %
30.01.2016 13:15 3,1 C 99 % 1020,1 hPa 0,0 l/m 5,0 km/h (1 Bft) NO 37 5 min 0,000 mm 0,7 UV-I 220 W/m 3,0 C 3,1 C 9,7 km/h (2 Bft) 96,58 %
30.01.2016 13:20 3,2 C 99 % 1019,9 hPa 0,0 l/m 4,6 km/h (1 Bft) N-NO 23 5 min 0,000 mm 0,7 UV-I 229 W/m 3,1 C 3,2 C 8,0 km/h (2 Bft) 100,00 %
30.01.2016 13:25 3,5 C 99 % 1019,7 hPa 0,0 l/m 6,4 km/h (2 Bft) NO 53 5 min 0,000 mm 0,7 UV-I 268 W/m 3,4 C 3,5 C 9,7 km/h (2 Bft) 98,37 %
30.01.2016 13:30 3,2 C 99 % 1019,5 hPa 0,0 l/m 6,4 km/h (2 Bft) O-NO 78 5 min 0,000 mm 0,8 UV-I 264 W/m 3,1 C 3,2 C 9,7 km/h (2 Bft) 97,94 %
30.01.2016 13:35 3,0 C 99 % 1019,4 hPa 0,0 l/m 7,1 km/h (2 Bft) N-NO 26 5 min 0,000 mm 0,7 UV-I 236 W/m 2,9 C 2,3 C 9,7 km/h (2 Bft) 98,46 %
30.01.2016 13:40 2,9 C 99 % 1019,3 hPa 0,0 l/m 7,7 km/h (2 Bft) O-NO 59 5 min 0,000 mm 0,8 UV-I 258 W/m 2,8 C 1,7 C 12,9 km/h (3 Bft) 100,00 %
30.01.2016 13:45 3,2 C 99 % 1019,3 hPa 0,0 l/m 5,5 km/h (1 Bft) N 5 5 min 0,000 mm 0,7 UV-I 225 W/m 3,1 C 3,2 C 9,7 km/h (2 Bft) 98,52 %
30.01.2016 13:50 3,1 C 99 % 1019,2 hPa 0,0 l/m 4,6 km/h (1 Bft) NO 53 0 min 0,000 mm 0,7 UV-I 193 W/m 3,0 C 3,1 C 8,0 km/h (2 Bft) 100,00 %
30.01.2016 13:55 3,1 C 99 % 1019,0 hPa 0,0 l/m 5,7 km/h (1 Bft) NO 42 5 min 0,000 mm 0,6 UV-I 206 W/m 3,0 C 3,1 C 9,7 km/h (2 Bft) 99,15 %
30.01.2016 14:00 3,1 C 99 % 1018,8 hPa 0,0 l/m 6,2 km/h (2 Bft) O-NO 59 5 min 0,076 mm 0,6 UV-I 202 W/m 3,0 C 3,1 C 9,7 km/h (2 Bft) 100,00 %
30.01.2016 14:05 3,3 C 99 % 1018,6 hPa 0,0 l/m 5,1 km/h (1 Bft) N-NO 32 0 min 0,000 mm 0,6 UV-I 186 W/m 3,2 C 3,3 C 9,7 km/h (2 Bft) 100,00 %
30.01.2016 14:10 3,6 C 99 % 1018,5 hPa 0,0 l/m 4,4 km/h (1 Bft) N-NO 22 5 min 0,000 mm 0,5 UV-I 204 W/m 3,5 C 3,6 C 6,4 km/h (2 Bft) 100,00 %
30.01.2016 14:15 3,6 C 99 % 1018,4 hPa 0,0 l/m 3,0 km/h (1 Bft) N-NO 17 0 min 0,000 mm 0,5 UV-I 172 W/m 3,5 C 3,6 C 6,4 km/h (2 Bft) 100,00 %
30.01.2016 14:20 3,6 C 99 % 1018,3 hPa 0,0 l/m 5,3 km/h (1 Bft) N 5 0 min 0,000 mm 0,5 UV-I 165 W/m 3,5 C 3,6 C 8,0 km/h (2 Bft) 100,00 %
30.01.2016 14:25 3,6 C 99 % 1018,3 hPa 0,0 l/m 3,6 km/h (1 Bft) N-NO 12 0 min 0,000 mm 0,2 UV-I 145 W/m 3,5 C 3,6 C 9,7 km/h (2 Bft) 99,13 %
30.01.2016 14:30 3,5 C 99 % 1018,3 hPa 0,0 l/m 4,5 km/h (1 Bft) N-NW 335 0 min 0,000 mm 0,0 UV-I 136 W/m 3,4 C 3,5 C 11,3 km/h (2 Bft) 100,00 %
30.01.2016 14:35 3,4 C 99 % 1018,0 hPa 0,0 l/m 3,3 km/h (1 Bft) NW 309 0 min 0,000 mm 0,0 UV-I 121 W/m 3,3 C 3,4 C 12,9 km/h (3 Bft) 99,12 %
30.01.2016 14:40 3,2 C 99 % 1017,8 hPa 0,0 l/m 6,1 km/h (2 Bft) N 10 0 min 0,000 mm 0,0 UV-I 111 W/m 3,1 C 3,2 C 12,9 km/h (3 Bft) 97,32 %
30.01.2016 14:45 3,3 C 99 % 1017,7 hPa 0,0 l/m 5,7 km/h (1 Bft) NO 46 0 min 0,000 mm 0,0 UV-I 116 W/m 3,2 C 3,3 C 9,7 km/h (2 Bft) 95,76 %
30.01.2016 14:50 3,3 C 99 % 1017,6 hPa 0,0 l/m 6,1 km/h (2 Bft) N-NO 28 0 min 0,000 mm 0,0 UV-I 116 W/m 3,2 C 3,3 C 9,7 km/h (2 Bft) 96,03 %
30.01.2016 14:55 3,4 C 99 % 1017,5 hPa 0,0 l/m 2,8 km/h (1 Bft) N-NO 32 0 min 0,000 mm 0,0 UV-I 114 W/m 3,3 C 3,4 C 9,7 km/h (2 Bft) 97,32 %
30.01.2016 15:00 3,3 C 99 % 1017,2 hPa 0,0 l/m 4,7 km/h (1 Bft) N 9 0 min 0,051 mm 0,0 UV-I 102 W/m 3,2 C 3,3 C 11,3 km/h (2 Bft) 97,50 %
30.01.2016 15:05 3,2 C 99 % 1017,1 hPa 0,0 l/m 6,4 km/h (2 Bft) N-NO 24 0 min 0,000 mm 0,0 UV-I 96 W/m 3,1 C 3,2 C 11,3 km/h (2 Bft) 98,31 %
30.01.2016 15:10 3,2 C 99 % 1017,0 hPa 0,0 l/m 6,0 km/h (2 Bft) N-NO 31 0 min 0,000 mm 0,0 UV-I 87 W/m 3,1 C 3,2 C 14,5 km/h (3 Bft) 98,26 %
30.01.2016 15:15 3,3 C 99 % 1016,9 hPa 0,0 l/m 7,8 km/h (2 Bft) NO 34 0 min 0,000 mm 0,0 UV-I 86 W/m 3,2 C 2,0 C 11,3 km/h (2 Bft) 99,10 %
30.01.2016 15:20 3,2 C 99 % 1016,8 hPa 0,0 l/m 8,6 km/h (2 Bft) N-NO 24 0 min 0,000 mm 0,0 UV-I 84 W/m 3,1 C 1,2 C 14,5 km/h (3 Bft) 97,52 %
30.01.2016 15:25 3,2 C 99 % 1016,8 hPa 0,0 l/m 7,6 km/h (2 Bft) N-NO 30 0 min 0,000 mm 0,0 UV-I 69 W/m 3,1 C 2,1 C 12,9 km/h (3 Bft) 98,21 %
30.01.2016 15:30 3,2 C 99 % 1016,7 hPa 0,0 l/m 3,6 km/h (1 Bft) N 11 0 min 0,000 mm 0,0 UV-I 73 W/m 3,1 C 3,2 C 8,0 km/h (2 Bft) 99,21 %
30.01.2016 15:35 3,2 C 99 % 1016,7 hPa 0,0 l/m 2,3 km/h (1 Bft) N 5 0 min 0,000 mm 0,0 UV-I 62 W/m 3,1 C 3,2 C 6,4 km/h (2 Bft) 100,00 %
30.01.2016 15:40 3,1 C 99 % 1016,7 hPa 0,0 l/m 1,2 km/h (1 Bft) N-NO 18 0 min 0,000 mm 0,0 UV-I 61 W/m 3,0 C 3,1 C 4,8 km/h (1 Bft) 100,00 %
30.01.2016 15:45 3,0 C 99 % 1016,6 hPa 0,0 l/m 3,5 km/h (1 Bft) N-NO 29 0 min 0,000 mm 0,0 UV-I 56 W/m 2,9 C 3,0 C 8,0 km/h (2 Bft) 98,99 %
30.01.2016 15:55 2,8 C 99 % 1016,5 hPa 0,0 l/m 7,1 km/h (2 Bft) N-NO 30 0 min 0,000 mm 0,0 UV-I 42 W/m 2,7 C 2,1 C 12,9 km/h (3 Bft) 98,85 %
30.01.2016 16:00 2,9 C 99 % 1016,5 hPa 0,0 l/m 2,8 km/h (1 Bft) N-NO 30 0 min 0,000 mm 0,0 UV-I 37 W/m 2,8 C 2,9 C 9,7 km/h (2 Bft) 98,21 %
30.01.2016 16:05 2,8 C 99 % 1016,2 hPa 0,0 l/m 2,3 km/h (1 Bft) N-NW 344 0 min 0,025 mm 0,0 UV-I 36 W/m 2,7 C 2,8 C 6,4 km/h (2 Bft) 99,18 %
30.01.2016 16:10 2,7 C 99 % 1016,2 hPa 0,0 l/m 2,0 km/h (1 Bft) N 5 0 min 0,000 mm 0,0 UV-I 33 W/m 2,6 C 2,7 C 6,4 km/h (2 Bft) 100,00 %
30.01.2016 16:15 2,6 C 99 % 1016,0 hPa 0,0 l/m 3,6 km/h (1 Bft) N 11 0 min 0,000 mm 0,0 UV-I 20 W/m 2,5 C 2,6 C 8,0 km/h (2 Bft) 100,00 %
30.01.2016 16:20 2,5 C 99 % 1016,1 hPa 0,0 l/m 2,4 km/h (1 Bft) N 5 0 min 0,000 mm 0,0 UV-I 20 W/m 2,4 C 2,5 C 6,4 km/h (2 Bft) 99,15 %
30.01.2016 16:25 2,4 C 99 % 1016,1 hPa 0,0 l/m 0,8 km/h (0 Bft) N 350 0 min 0,000 mm 0,0 UV-I 20 W/m 2,3 C 2,4 C 3,2 km/h (1 Bft) 99,19 %
30.01.2016 16:30 2,5 C 99 % 1016,0 hPa 0,0 l/m 1,1 km/h (1 Bft) N-NO 15 0 min 0,000 mm 0,0 UV-I 17 W/m 2,4 C 2,5 C 4,8 km/h (1 Bft) 100,00 %
30.01.2016 16:35 2,3 C 99 % 1015,9 hPa 0,0 l/m 1,0 km/h (0 Bft) N-NO 15 0 min 0,000 mm 0,0 UV-I 13 W/m 2,2 C 2,3 C 4,8 km/h (1 Bft) 99,15 %
30.01.2016 16:40 2,3 C 99 % 1015,9 hPa 0,0 l/m 1,8 km/h (1 Bft) N-NO 14 0 min 0,000 mm 0,0 UV-I 11 W/m 2,2 C 2,3 C 4,8 km/h (1 Bft) 99,11 %
30.01.2016 16:45 2,3 C 99 % 1015,9 hPa 0,0 l/m 1,1 km/h (1 Bft) N-NO 14 0 min 0,000 mm 0,0 UV-I 8 W/m 2,2 C 2,3 C 4,8 km/h (1 Bft) 95,65 %
30.01.2016 16:50 2,2 C 99 % 1015,9 hPa 0,0 l/m 2,1 km/h (1 Bft) NO 39 0 min 0,000 mm 0,0 UV-I 5 W/m 2,1 C 2,2 C 3,2 km/h (1 Bft) 97,64 %
30.01.2016 16:55 2,2 C 99 % 1016,1 hPa 0,0 l/m 2,0 km/h (1 Bft) N-NW 340 0 min 0,000 mm 0,0 UV-I 3 W/m 2,1 C 2,2 C 4,8 km/h (1 Bft) 97,32 %
30.01.2016 17:00 2,1 C 99 % 1015,9 hPa 0,0 l/m 1,2 km/h (1 Bft) NW 326 0 min 0,000 mm 0,0 UV-I 0 W/m 2,0 C 2,1 C 3,2 km/h (1 Bft) 98,25 %
30.01.2016 17:05 2,0 C 99 % 1015,9 hPa 0,0 l/m 1,1 km/h (1 Bft) NW 313 0 min 0,000 mm 0,0 UV-I 0 W/m 1,9 C 2,0 C 4,8 km/h (1 Bft) 96,77 %
30.01.2016 17:10 1,9 C 99 % 1015,9 hPa 0,0 l/m 0,3 km/h (0 Bft) NW 313 0 min 0,000 mm 0,0 UV-I 0 W/m 1,8 C 1,9 C 3,2 km/h (1 Bft) 97,46 %
30.01.2016 17:15 1,9 C 99 % 1015,8 hPa 0,0 l/m 0,3 km/h (0 Bft) NW 313 0 min 0,000 mm 0,0 UV-I 0 W/m 1,8 C 1,9 C 3,2 km/h (1 Bft) 95,50 %
30.01.2016 17:20 1,9 C 99 % 1015,6 hPa 0,0 l/m 0,2 km/h (0 Bft) S-SW 207 0 min 0,000 mm 0,0 UV-I 0 W/m 1,8 C 1,9 C 4,8 km/h (1 Bft) 98,26 %
30.01.2016 17:25 1,8 C 99 % 1015,3 hPa 0,0 l/m 2,1 km/h (1 Bft) SO 128 0 min 0,000 mm 0,0 UV-I 0 W/m 1,7 C 1,8 C 6,4 km/h (2 Bft) 97,50 %
30.01.2016 17:30 1,8 C 99 % 1015,3 hPa 0,0 l/m 1,8 km/h (1 Bft) S 169 0 min 0,000 mm 0,0 UV-I 0 W/m 1,7 C 1,8 C 6,4 km/h (2 Bft) 98,25 %
30.01.2016 17:35 1,7 C 99 % 1015,0 hPa 0,0 l/m 3,0 km/h (1 Bft) SO 141 0 min 0,000 mm 0,0 UV-I 0 W/m 1,6 C 1,7 C 6,4 km/h (2 Bft) 99,12 %
30.01.2016 17:40 1,7 C 99 % 1014,8 hPa 0,0 l/m 3,4 km/h (1 Bft) S-SO 165 0 min 0,000 mm 0,0 UV-I 0 W/m 1,6 C 1,7 C 9,7 km/h (2 Bft) 99,15 %
30.01.2016 17:45 1,7 C 99 % 1014,8 hPa 0,0 l/m 2,4 km/h (1 Bft) S-SO 163 0 min 0,000 mm 0,0 UV-I 0 W/m 1,6 C 1,7 C 4,8 km/h (1 Bft) 98,33 %
30.01.2016 17:50 1,7 C 99 % 1014,6 hPa 0,0 l/m 6,2 km/h (2 Bft) S 191 0 min 0,000 mm 0,0 UV-I 0 W/m 1,6 C 1,7 C 11,3 km/h (2 Bft) 100,00 %
30.01.2016 17:55 1,7 C 99 % 1014,6 hPa 0,0 l/m 6,8 km/h (2 Bft) S 173 0 min 0,000 mm 0,0 UV-I 0 W/m 1,6 C 1,3 C 12,9 km/h (3 Bft) 99,07 %
30.01.2016 18:00 1,7 C 99 % 1014,6 hPa 0,0 l/m 6,3 km/h (2 Bft) S 188 0 min 0,000 mm 0,0 UV-I 0 W/m 1,6 C 1,7 C 11,3 km/h (2 Bft) 98,39 %
30.01.2016 18:05 1,7 C 99 % 1014,7 hPa 0,0 l/m 5,5 km/h (1 Bft) S 178 0 min 0,000 mm 0,0 UV-I 0 W/m 1,6 C 1,7 C 9,7 km/h (2 Bft) 100,00 %
30.01.2016 18:10 1,7 C 99 % 1014,5 hPa 0,0 l/m 3,9 km/h (1 Bft) S 188 0 min 0,000 mm 0,0 UV-I 0 W/m 1,6 C 1,7 C 6,4 km/h (2 Bft) 99,19 %
30.01.2016 18:15 1,7 C 99 % 1014,3 hPa 0,0 l/m 5,0 km/h (1 Bft) S-SW 202 0 min 0,000 mm 0,0 UV-I 0 W/m 1,6 C 1,7 C 9,7 km/h (2 Bft) 100,00 %
30.01.2016 18:20 1,7 C 99 % 1013,9 hPa 0,0 l/m 4,8 km/h (1 Bft) SO 144 0 min 0,000 mm 0,0 UV-I 0 W/m 1,6 C 1,7 C 11,3 km/h (2 Bft) 99,19 %
30.01.2016 18:25 1,6 C 99 % 1014,0 hPa 0,0 l/m 1,8 km/h (1 Bft) W-NW 288 0 min 0,000 mm 0,0 UV-I 0 W/m 1,5 C 1,6 C 4,8 km/h (1 Bft) 99,13 %
30.01.2016 18:30 1,4 C 99 % 1014,0 hPa 0,0 l/m 0,4 km/h (0 Bft) W-NW 289 0 min 0,000 mm 0,0 UV-I 0 W/m 1,3 C 1,4 C 3,2 km/h (1 Bft) 99,17 %
30.01.2016 18:35 1,4 C 99 % 1014,1 hPa 0,0 l/m 1,8 km/h (1 Bft) W-NW 289 0 min 0,000 mm 0,0 UV-I 0 W/m 1,3 C 1,4 C 3,2 km/h (1 Bft) 100,00 %
30.01.2016 18:40 1,3 C 99 % 1014,2 hPa 0,0 l/m 1,5 km/h (1 Bft) W-NW 289 0 min 0,000 mm 0,0 UV-I 0 W/m 1,2 C 1,3 C 4,8 km/h (1 Bft) 98,45 %
30.01.2016 18:45 1,3 C 99 % 1014,1 hPa 0,0 l/m 2,0 km/h (1 Bft) W-NW 300 0 min 0,000 mm 0,0 UV-I 0 W/m 1,2 C 1,3 C 6,4 km/h (2 Bft) 100,00 %
30.01.2016 18:50 1,3 C 99 % 1014,2 hPa 0,0 l/m 2,9 km/h (1 Bft) NW 315 0 min 0,000 mm 0,0 UV-I 0 W/m 1,2 C 1,3 C 8,0 km/h (2 Bft) 97,37 %
30.01.2016 18:55 1,3 C 99 % 1014,1 hPa 0,0 l/m 2,2 km/h (1 Bft) NW 320 0 min 0,000 mm 0,0 UV-I 0 W/m 1,2 C 1,3 C 9,7 km/h (2 Bft) 97,32 %
30.01.2016 19:00 1,4 C 99 % 1014,0 hPa 0,0 l/m 3,2 km/h (1 Bft) NW 315 0 min 0,000 mm 0,0 UV-I 0 W/m 1,3 C 1,4 C 6,4 km/h (2 Bft) 97,50 %
30.01.2016 19:05 1,5 C 99 % 1013,8 hPa 0,0 l/m 3,3 km/h (1 Bft) N-NW 342 0 min 0,000 mm 0,0 UV-I 0 W/m 1,4 C 1,5 C 8,0 km/h (2 Bft) 97,32 %
30.01.2016 19:10 1,5 C 99 % 1013,7 hPa 0,0 l/m 3,0 km/h (1 Bft) NW 323 0 min 0,000 mm 0,0 UV-I 0 W/m 1,4 C 1,5 C 6,4 km/h (2 Bft) 96,15 %
30.01.2016 19:15 1,5 C 99 % 1013,6 hPa 0,0 l/m 2,3 km/h (1 Bft) W-NW 298 0 min 0,000 mm 0,0 UV-I 0 W/m 1,4 C 1,5 C 4,8 km/h (1 Bft) 96,19 %
30.01.2016 19:20 1,6 C 99 % 1013,6 hPa 0,0 l/m 0,9 km/h (0 Bft) NW 319 0 min 0,000 mm 0,0 UV-I 0 W/m 1,5 C 1,6 C 3,2 km/h (1 Bft) 98,35 %
30.01.2016 19:25 1,5 C 99 % 1013,6 hPa 0,0 l/m 3,5 km/h (1 Bft) NW 308 0 min 0,000 mm 0,0 UV-I 0 W/m 1,4 C 1,5 C 6,4 km/h (2 Bft) 98,26 %
30.01.2016 19:30 1,4 C 99 % 1013,5 hPa 0,0 l/m 0,7 km/h (0 Bft) NW 308 0 min 0,000 mm 0,0 UV-I 0 W/m 1,3 C 1,4 C 3,2 km/h (1 Bft) 98,37 %
30.01.2016 19:35 1,4 C 99 % 1013,5 hPa 0,0 l/m 1,6 km/h (1 Bft) NW 310 0 min 0,000 mm 0,0 UV-I 0 W/m 1,3 C 1,4 C 4,8 km/h (1 Bft) 98,31 %
30.01.2016 19:40 1,4 C 99 % 1013,2 hPa 0,0 l/m 0,6 km/h (0 Bft) NW 310 0 min 0,000 mm 0,0 UV-I 0 W/m 1,3 C 1,4 C 3,2 km/h (1 Bft) 99,12 %
30.01.2016 19:45 1,4 C 99 % 1013,3 hPa 0,0 l/m 1,0 km/h (0 Bft) NW 310 0 min 0,000 mm 0,0 UV-I 0 W/m 1,3 C 1,4 C 3,2 km/h (1 Bft) 98,35 %
30.01.2016 19:50 1,4 C 99 % 1013,1 hPa 0,0 l/m 0,2 km/h (0 Bft) S-SW 211 0 min 0,000 mm 0,0 UV-I 0 W/m 1,3 C 1,4 C 1,6 km/h (1 Bft) 98,17 %
30.01.2016 19:55 1,3 C 99 % 1013,0 hPa 0,0 l/m 0,1 km/h (0 Bft) S-SW 211 0 min 0,000 mm 0,0 UV-I 0 W/m 1,2 C 1,3 C 1,6 km/h (1 Bft) 98,37 %
30.01.2016 20:00 1,3 C 99 % 1012,8 hPa 0,0 l/m 0,4 km/h (0 Bft) S-SW 211 0 min 0,000 mm 0,0 UV-I 0 W/m 1,2 C 1,3 C 1,6 km/h (1 Bft) 100,00 %
30.01.2016 20:05 1,2 C 99 % 1012,9 hPa 0,0 l/m 2,0 km/h (1 Bft) S 188 0 min 0,000 mm 0,0 UV-I 0 W/m 1,1 C 1,2 C 4,8 km/h (1 Bft) 100,00 %
30.01.2016 20:10 1,1 C 99 % 1013,2 hPa 0,0 l/m 2,9 km/h (1 Bft) S-SW 197 0 min 0,000 mm 0,0 UV-I 0 W/m 1,0 C 1,1 C 6,4 km/h (2 Bft) 98,37 %
30.01.2016 20:15 1,2 C 99 % 1013,2 hPa 0,0 l/m 2,4 km/h (1 Bft) W 267 0 min 0,000 mm 0,0 UV-I 0 W/m 1,1 C 1,2 C 4,8 km/h (1 Bft) 99,11 %
30.01.2016 20:20 1,1 C 99 % 1013,2 hPa 0,0 l/m 1,1 km/h (1 Bft) NW 308 0 min 0,000 mm 0,0 UV-I 0 W/m 1,0 C 1,1 C 3,2 km/h (1 Bft) 100,00 %
30.01.2016 20:25 1,1 C 99 % 1013,4 hPa 0,0 l/m 1,6 km/h (1 Bft) NW 308 0 min 0,000 mm 0,0 UV-I 0 W/m 1,0 C 1,1 C 4,8 km/h (1 Bft) 98,41 %
30.01.2016 20:30 1,2 C 99 % 1013,6 hPa 0,0 l/m 3,4 km/h (1 Bft) W-SW 252 0 min 0,000 mm 0,0 UV-I 0 W/m 1,1 C 1,2 C 6,4 km/h (2 Bft) 100,00 %
30.01.2016 20:35 1,1 C 99 % 1013,3 hPa 0,0 l/m 2,5 km/h (1 Bft) SW 223 0 min 0,000 mm 0,0 UV-I 0 W/m 1,0 C 1,1 C 4,8 km/h (1 Bft) 100,00 %
30.01.2016 20:40 1,1 C 99 % 1013,3 hPa 0,0 l/m 4,9 km/h (1 Bft) SW 232 0 min 0,000 mm 0,0 UV-I 0 W/m 1,0 C 1,1 C 9,7 km/h (2 Bft) 100,00 %
30.01.2016 20:45 1,2 C 99 % 1013,1 hPa 0,0 l/m 3,9 km/h (1 Bft) S-SO 162 0 min 0,000 mm 0,0 UV-I 0 W/m 1,1 C 1,2 C 9,7 km/h (2 Bft) 99,19 %
30.01.2016 20:50 1,2 C 99 % 1013,2 hPa 0,0 l/m 4,2 km/h (1 Bft) SW 234 0 min 0,000 mm 0,0 UV-I 0 W/m 1,1 C 1,2 C 9,7 km/h (2 Bft) 99,12 %
30.01.2016 20:55 1,2 C 99 % 1013,9 hPa 0,0 l/m 3,0 km/h (1 Bft) W-SW 252 0 min 0,000 mm 0,0 UV-I 0 W/m 1,1 C 1,2 C 8,0 km/h (2 Bft) 97,64 %
30.01.2016 21:00 1,3 C 99 % 1013,6 hPa 0,0 l/m 4,8 km/h (1 Bft) S 190 0 min 0,000 mm 0,0 UV-I 0 W/m 1,2 C 1,3 C 9,7 km/h (2 Bft) 97,30 %
30.01.2016 21:05 1,4 C 99 % 1013,3 hPa 0,0 l/m 4,2 km/h (1 Bft) S 178 0 min 0,000 mm 0,0 UV-I 0 W/m 1,3 C 1,4 C 9,7 km/h (2 Bft) 97,46 %
30.01.2016 21:10 1,5 C 99 % 1013,3 hPa 0,0 l/m 3,4 km/h (1 Bft) S 187 0 min 0,000 mm 0,0 UV-I 0 W/m 1,4 C 1,5 C 8,0 km/h (2 Bft) 96,43 %
30.01.2016 21:15 1,5 C 99 % 1013,3 hPa 0,0 l/m 6,2 km/h (2 Bft) S 176 0 min 0,000 mm 0,0 UV-I 0 W/m 1,4 C 1,5 C 9,7 km/h (2 Bft) 96,83 %
30.01.2016 21:20 1,6 C 99 % 1013,1 hPa 0,0 l/m 3,7 km/h (1 Bft) S-SO 165 0 min 0,000 mm 0,0 UV-I 0 W/m 1,5 C 1,6 C 8,0 km/h (2 Bft) 98,31 %
30.01.2016 21:25 1,7 C 99 % 1013,2 hPa 0,0 l/m 3,0 km/h (1 Bft) S-SO 165 0 min 0,000 mm 0,0 UV-I 0 W/m 1,6 C 1,7 C 6,4 km/h (2 Bft) 97,32 %
30.01.2016 21:30 1,8 C 99 % 1013,2 hPa 0,0 l/m 5,2 km/h (1 Bft) S-SO 167 0 min 0,000 mm 0,0 UV-I 0 W/m 1,7 C 1,8 C 8,0 km/h (2 Bft) 99,17 %
30.01.2016 21:35 1,8 C 99 % 1013,4 hPa 0,0 l/m 5,1 km/h (1 Bft) S-SW 203 0 min 0,000 mm 0,0 UV-I 0 W/m 1,7 C 1,8 C 9,7 km/h (2 Bft) 99,13 %
30.01.2016 21:40 2,0 C 99 % 1013,4 hPa 0,0 l/m 6,8 km/h (2 Bft) S 170 0 min 0,000 mm 0,0 UV-I 0 W/m 1,9 C 1,6 C 12,9 km/h (3 Bft) 98,33 %
30.01.2016 21:45 2,3 C 99 % 1013,3 hPa 0,0 l/m 7,6 km/h (2 Bft) S 190 0 min 0,000 mm 0,0 UV-I 0 W/m 2,2 C 1,1 C 14,5 km/h (3 Bft) 99,11 %
30.01.2016 21:50 2,4 C 99 % 1013,2 hPa 0,0 l/m 6,3 km/h (2 Bft) SW 217 0 min 0,000 mm 0,0 UV-I 0 W/m 2,3 C 2,4 C 12,9 km/h (3 Bft) 98,31 %
30.01.2016 21:55 2,5 C 99 % 1013,3 hPa 0,0 l/m 8,5 km/h (2 Bft) S-SW 193 0 min 0,000 mm 0,0 UV-I 0 W/m 2,4 C 0,5 C 16,1 km/h (3 Bft) 100,00 %
30.01.2016 22:00 2,7 C 99 % 1013,3 hPa 0,0 l/m 11,7 km/h (2 Bft) SO 130 0 min 0,000 mm 0,0 UV-I 0 W/m 2,6 C -1,7 C 19,3 km/h (3 Bft) 100,00 %
30.01.2016 22:05 2,8 C 99 % 1013,4 hPa 0,0 l/m 9,3 km/h (2 Bft) S 182 0 min 0,000 mm 0,0 UV-I 0 W/m 2,7 C 0,2 C 16,1 km/h (3 Bft) 100,00 %
30.01.2016 22:10 2,9 C 99 % 1013,2 hPa 0,0 l/m 8,6 km/h (2 Bft) S 181 0 min 0,000 mm 0,0 UV-I 0 W/m 2,8 C 0,9 C 16,1 km/h (3 Bft) 100,00 %
30.01.2016 22:15 2,9 C 99 % 1013,2 hPa 0,0 l/m 6,5 km/h (2 Bft) S-SW 202 0 min 0,000 mm 0,0 UV-I 0 W/m 2,8 C 2,8 C 11,3 km/h (2 Bft) 100,00 %
30.01.2016 22:20 3,1 C 99 % 1013,0 hPa 0,0 l/m 7,5 km/h (2 Bft) S 184 0 min 0,000 mm 0,0 UV-I 0 W/m 3,0 C 2,1 C 11,3 km/h (2 Bft) 100,00 %
30.01.2016 22:25 3,4 C 99 % 1012,9 hPa 0,0 l/m 8,8 km/h (2 Bft) S-SW 192 0 min 0,000 mm 0,0 UV-I 0 W/m 3,3 C 1,2 C 16,1 km/h (3 Bft) 98,26 %
30.01.2016 22:30 3,6 C 99 % 1012,9 hPa 0,0 l/m 5,6 km/h (1 Bft) S 175 0 min 0,000 mm 0,0 UV-I 0 W/m 3,5 C 3,6 C 8,0 km/h (2 Bft) 99,13 %
30.01.2016 22:35 3,7 C 99 % 1013,0 hPa 0,0 l/m 6,9 km/h (2 Bft) S-SW 211 0 min 0,000 mm 0,0 UV-I 0 W/m 3,6 C 3,2 C 12,9 km/h (3 Bft) 99,17 %
30.01.2016 22:40 3,8 C 99 % 1012,8 hPa 0,0 l/m 4,6 km/h (1 Bft) SW 225 0 min 0,000 mm 0,0 UV-I 0 W/m 3,7 C 3,8 C 8,0 km/h (2 Bft) 99,14 %
30.01.2016 22:45 4,0 C 99 % 1012,8 hPa 0,0 l/m 7,6 km/h (2 Bft) SW 221 0 min 0,000 mm 0,0 UV-I 0 W/m 3,9 C 2,9 C 12,9 km/h (3 Bft) 100,00 %
30.01.2016 22:50 4,3 C 99 % 1012,9 hPa 0,0 l/m 8,3 km/h (2 Bft) W-SW 237 0 min 0,000 mm 0,0 UV-I 0 W/m 4,2 C 2,6 C 17,7 km/h (3 Bft) 98,06 %
30.01.2016 22:55 4,4 C 99 % 1013,0 hPa 0,0 l/m 8,0 km/h (2 Bft) W-SW 252 0 min 0,000 mm 0,0 UV-I 0 W/m 4,3 C 3,0 C 12,9 km/h (3 Bft) 98,58 %
30.01.2016 23:00 4,7 C 99 % 1013,2 hPa 0,0 l/m 12,7 km/h (3 Bft) W-SW 258 0 min 0,000 mm 0,0 UV-I 0 W/m 4,6 C -0,0 C 19,3 km/h (3 Bft) 97,37 %
30.01.2016 23:05 4,8 C 99 % 1013,1 hPa 0,0 l/m 13,2 km/h (3 Bft) W-SW 258 0 min 0,000 mm 0,0 UV-I 0 W/m 4,7 C -0,2 C 17,7 km/h (3 Bft) 96,61 %
30.01.2016 23:10 4,8 C 99 % 1012,6 hPa 0,2 l/m 9,1 km/h (2 Bft) S-SW 194 0 min 0,000 mm 0,0 UV-I 0 W/m 4,7 C 2,5 C 17,7 km/h (3 Bft) 97,39 %
30.01.2016 23:15 4,8 C 99 % 1012,5 hPa 0,0 l/m 11,7 km/h (2 Bft) S 188 0 min 0,000 mm 0,0 UV-I 0 W/m 4,7 C 0,7 C 17,7 km/h (3 Bft) 98,20 %
30.01.2016 23:20 5,2 C 99 % 1012,3 hPa 0,2 l/m 18,1 km/h (3 Bft) W-SW 240 0 min 0,000 mm 0,0 UV-I 0 W/m 5,1 C -2,1 C 25,7 km/h (4 Bft) 97,09 %
30.01.2016 23:25 5,6 C 99 % 1012,6 hPa 0,0 l/m 15,9 km/h (3 Bft) W-SW 242 0 min 0,000 mm 0,0 UV-I 0 W/m 5,5 C -0,6 C 24,1 km/h (4 Bft) 96,40 %
30.01.2016 23:30 5,7 C 99 % 1012,7 hPa 0,0 l/m 12,1 km/h (2 Bft) SW 236 0 min 0,000 mm 0,0 UV-I 0 W/m 5,6 C 1,5 C 19,3 km/h (3 Bft) 93,69 %
30.01.2016 23:35 5,8 C 99 % 1012,7 hPa 0,2 l/m 11,3 km/h (2 Bft) SW 236 0 min 0,000 mm 0,0 UV-I 0 W/m 5,7 C 2,1 C 17,7 km/h (3 Bft) 98,31 %
30.01.2016 23:40 5,8 C 99 % 1012,7 hPa 0,0 l/m 14,2 km/h (3 Bft) W-SW 257 0 min 0,000 mm 0,0 UV-I 0 W/m 5,7 C 0,5 C 20,9 km/h (4 Bft) 100,00 %
30.01.2016 23:45 5,8 C 99 % 1012,7 hPa 0,2 l/m 13,0 km/h (3 Bft) W 260 0 min 0,000 mm 0,0 UV-I 0 W/m 5,7 C 1,1 C 19,3 km/h (3 Bft) 98,17 %
30.01.2016 23:50 5,8 C 98 % 1012,6 hPa 0,2 l/m 9,4 km/h (2 Bft) S-SW 206 0 min 0,000 mm 0,0 UV-I 0 W/m 5,5 C 3,4 C 14,5 km/h (3 Bft) 100,00 %
30.01.2016 23:55 5,8 C 98 % 1012,5 hPa 0,2 l/m 5,4 km/h (1 Bft) W 269 0 min 0,000 mm 0,0 UV-I 0 W/m 5,5 C 5,8 C 9,7 km/h (2 Bft) 100,00 %
_ Min-Zeit 08:55 10:10 23:20 - 01:50 - - - - - - 08:50 23:20 04:40 00:05
Minimum _ -1,0 C 97 % 1012,3 hPa - 0,0 km/h (0 Bft) - - - - - - -1,2 C -2,1 C 0,0 km/h (0 Bft) 72,37 %
_ Max-Zeit 23:30 01:10 00:05 08:50 23:20 - - 08:20 12:00 11:10 11:20 23:35 23:55 23:20 00:00
Maximum _ 5,8 C 99 % 1028,2 hPa 0,2 l/m 18,1 km/h
W-SW (3 Bft)
- - 5 min 0,101 mm 1,0 UV-I 361 W/m 5,7 C 5,8 C 25,7 km/h
S-SO (4 Bft)
100,00 %
Durchschnitt _ 1,6 C 99 % 1020,7 hPa #1,4 l/m 3,8 km/h (1 Bft) S - #5:00 h #0,508 mm 0,7 UV-I 161 W/m 1,4 C 1,4 C 7,5 km/h (2 Bft) 98,46 %